Location: Kalberh�ni
(46.4610°N, 7.2453°E)
Time: 02:31:10
(UTC+00:00)

Cosmos 1184 Rocket - Pass Details

Date: 20 June 2021
Orbit: 399 x 414 km, 81.2° (Epoch: 25 July)

Event Time Altitude Azimuth Distance (km) Brightness Sun altitude
Exits shadow 22:28:47 67° 197° (SSW) 456 2.6 -18.6°
Maximum altitude 22:29:10 87° 280° (W) 423 2.6 -18.6°
Drops below altitude 10° 22:32:27 10° 10° (N) 1,500 6.5 -18.8°
Sets 22:34:29 0° 11° (N) 2,367 7.7 -18.9°
